This is the latest recevied weather packets stored in our database for station/object W5LND-10. If no packets are shown the sender has not sent any weather packets the latest 10 day(s).
| Time | Temp. | Humidity | Pressure | Rain* | Wind** | Luminosity | Snow |
|---|---|---|---|---|---|---|---|
| 1787872547 | 28.89° C | 60% | 1010 hPa | 0 mm | - | 153 W/m² | - |
| 1787872247 | 29.44° C | 58% | 1009.7 hPa | 0 mm | - | 148 W/m² | - |
| 1787871947 | 28.89° C | 56% | 1009.4 hPa | 0 mm | - | 160 W/m² | - |
| 1787871647 | 28.33° C | 58% | 1009.3 hPa | 0 mm | - | 195 W/m² | - |
| 1787871347 | 28.33° C | 57% | 1009.3 hPa | 0 mm | - | 250 W/m² | - |
| 1787871047 | 28.89° C | 55% | 1009.2 hPa | 0 mm | - | 272 W/m² | - |
| 1787870747 | 29.44° C | 53% | 1009.3 hPa | 0 mm | - | 199 W/m² | - |
| 1787870447 | 29.44° C | 52% | 1009.5 hPa | 0 mm | - | 178 W/m² | - |
| 1787870147 | 30.56° C | 49% | 1009.5 hPa | 0 mm | - | 174 W/m² | - |
| 1787869847 | 31.11° C | 47% | 1009.4 hPa | 0 mm | - | 163 W/m² | - |
| 1787869547 | 32.22° C | 45% | 1009.4 hPa | 0 mm | - | 139 W/m² | - |
| 1787869247 | 32.78° C | 43% | 1009.4 hPa | 0 mm | - | 141 W/m² | - |
| 1787868947 | 33.33° C | 42% | 1008.9 hPa | 0 mm | - | 171 W/m² | - |
| 1787868647 | 33.33° C | 41% | 1008.7 hPa | 0 mm | - | 200 W/m² | - |
| 1787868347 | 33.89° C | 40% | 1008.7 hPa | 0 mm | - | 213 W/m² | - |
| 1787868047 | 33.89° C | 40% | 1008.7 hPa | 0 mm | - | 218 W/m² | - |
| 1787867747 | 33.89° C | 40% | 1008.8 hPa | 0 mm | - | 251 W/m² | - |
| 1787867449 | 33.89° C | 40% | 1008.9 hPa | 0 mm | - | 292 W/m² | - |
| 1787867147 | 34.44° C | 40% | 1008.7 hPa | 0 mm | - | 253 W/m² | - |
| 1787866847 | 35° C | 39% | 1008.7 hPa | 0 mm | - | 218 W/m² | - |
| 1787866547 | 35.56° C | 35% | 1008.5 hPa | 0 mm | - | 206 W/m² | - |
| 1787866247 | 35.56° C | 36% | 1008.4 hPa | 0 mm | - | 192 W/m² | - |
| 1787865947 | 36.11° C | 35% | 1008.3 hPa | 0 mm | - | 281 W/m² | - |
| 1787865647 | 36.11° C | 35% | 1008.2 hPa | 0 mm | - | 302 W/m² | - |
| 1787865347 | 36.11° C | 35% | 1008.4 hPa | 0 mm | - | 318 W/m² | - |
* Rain latest hour (hover to see other rain measurements)
** Current wind speed in m/s (hover to see current wind gust speed)